1511884801.16,49881,10.06,72746.8,-5.45,-20.69,-23.23,0,*55
1511884802.44,49882,10.06,72748.8,-5.45,-20.79,-23.23,0,*57
1511884803.73,49883,10.06,72750.3,-5.45,-20.79,-23.33,0,*57
1511884805.02,49884,10.06,72756.5,-5.45,-20.83,-23.23,0,*54
1511884806.26,49885,10.06,72754.8,-5.45,-20.69,-23.09,0,*59
1511884807.52,49886,10.06,72752.3,-5.45,-20.49,-23.09,0,*58
1511884808.78,49887,10.06,72746.5,-5.45,-20.69,-23.19,0,*5A
1511884810.05,49888,10.06,72744.8,-5.45,-20.69,-23.23,0,*5C
1511884811.31,49889,10.06,72744.3,-5.45,-20.63,-23.23,0,*57
1511884812.58,49890,10.06,72750.0,-5.45,-20.69,-23.19,0,*5C
1511884813.81,49891,10.06,72750.5,-5.43,-20.63,-23.29,0,*52
1511884815.02,49892,10.06,72742.5,-5.43,-20.59,-23.13,0,*51
1511884816.26,49893,10.06,72738.0,-5.45,-20.63,-23.09,0,*54
1511884817.48,49894,10.06,72740.5,-5.43,-20.59,-23.13,0,*57
1511884818.71,49895,10.06,72742.0,-5.43,-20.63,-23.03,0,*5E
1511884819.93,49896,10.06,72740.8,-5.43,-20.59,-23.13,0,*55
1511884821.16,49897,10.06,72742.0,-5.43,-20.63,-23.19,0,*57
1511884822.42,49898,10.06,72744.3,-5.45,-20.69,-23.33,0,*5C
1511884823.65,49899,10.06,72746.8,-5.43,-20.63,-23.29,0,*5A
1511884824.94,49900,10.06,72748.8,-5.45,-20.83,-23.49,0,*55
1511884826.2,49901,10.06,72748.8,-5.45,-20.93,-23.49,0,*55
1511884827.44,49902,10.06,72752.5,-5.43,-20.79,-23.43,0,*5E
1511884828.69,49903,10.06,72754.8,-5.45,-20.93,-23.49,0,*57
1511884829.95,49904,10.06,72752.5,-5.43,-20.79,-23.49,0,*52
1511884831.21,49905,10.06,72748.5,-5.43,-20.79,-23.49,0,*53
1511884832.49,49906,10.06,72742.5,-5.45,-20.79,-23.49,0,*56
1511884833.73,49907,10.06,72748.0,-5.43,-20.89,-23.49,0,*5E
1511884834.96,49908,10.06,72748.5,-5.43,-20.93,-23.53,0,*51
1511884836.24,49909,10.06,72746.5,-5.45,-20.83,-23.53,0,*57
1511884837.52,49910,10.06,72746.3,-5.45,-20.79,-23.53,0,*5A
1511884838.8,49911,10.06,72746.5,-5.45,-20.83,-23.53,0,*5E
1511884840.08,49912,10.06,72748.8,-5.45,-20.83,-23.53,0,*5D
1511884841.31,49913,10.06,72750.8,-5.43,-20.79,-23.59,0,*55
1511884842.59,49914,10.06,72750.5,-5.45,-20.83,-23.69,0,*52
1511884843.88,49915,10.06,72752.0,-5.45,-20.83,-23.69,0,*53
1511884845.16,49916,10.06,72750.0,-5.45,-20.79,-23.69,0,*55
1511884846.43,49917,10.06,72756.0,-5.49,-20.83,-23.69,0,*5D
1511884847.69,49918,10.06,72752.3,-5.45,-20.79,-23.79,0,*5A
1511884848.95,49919,10.06,72754.3,-5.45,-20.83,-23.79,0,*5E
1511884850.23,49920,10.06,72760.0,-5.45,-20.79,-23.69,0,*50
1511884851.51,49921,10.06,72762.3,-5.45,-20.79,-23.53,0,*58
1511884852.77,49922,10.06,72756.0,-5.45,-20.83,-23.79,0,*56
1511884854.03,49923,10.06,72758.5,-5.45,-20.83,-23.79,0,*57
1511884855.29,49924,10.06,72752.3,-5.45,-20.99,-23.79,0,*5B
1511884856.58,49925,10.06,72756.8,-5.45,-20.99,-23.85,0,*59
1511884857.86,49926,10.06,72756.3,-5.45,-21.03,-23.85,0,*58
1511884859.15,49927,10.06,72754.3,-5.45,-21.03,-23.85,0,*59
1511884860.44,49928,10.06,72754.8,-5.45,-20.99,-23.85,0,*54
1511884861.67,49929,10.06,72750.0,-5.45,-20.93,-23.79,0,*5C
1511884862.91,49930,10.06,72750.3,-5.45,-20.93,-23.79,0,*54
1511884864.19,49931,10.06,72752.5,-5.49,-21.03,-23.99,0,*5F
1511884865.44,49932,10.06,72748.3,-5.45,-21.13,-23.95,0,*5D
1511884866.72,49933,10.06,72748.8,-5.45,-21.03,-23.95,0,*5D
1511884867.97,49934,10.06,72746.5,-5.49,-21.09,-24.11,0,*57
1511884869.23,49935,10.06,72748.8,-5.45,-21.13,-23.85,0,*5B
1511884870.51,49936,10.06,72752.5,-5.45,-21.03,-23.95,0,*58
1511884871.76,49937,10.06,72754.8,-5.49,-21.09,-23.95,0,*5F
1511884873.01,49938,10.06,72750.5,-5.49,-21.17,-23.99,0,*53
1511884874.3,49939,10.06,72754.0,-5.45,-21.03,-23.85,0,*56
1511884875.55,49940,10.06,72752.3,-5.49,-21.09,-23.99,0,*53
1511884876.83,49941,10.06,72754.8,-5.49,-21.03,-23.99,0,*58
1511884878.06,49942,10.06,72758.0,-5.49,-21.17,-23.89,0,*5F
1511884879.31,49943,10.06,72760.0,-5.49,-21.09,-23.99,0,*50
1511884880.56,49944,10.06,72760.5,-5.45,-21.13,-23.95,0,*5C
1511884881.82,49945,10.06,72762.0,-5.49,-21.17,-24.11,0,*5E
1511884883.08,49946,10.06,72766.5,-5.45,-21.03,-24.05,0,*51
1511884884.31,49947,10.06,72762.3,-5.51,-20.83,-23.89,0,*5F
1511884885.54,49948,10.06,72762.8,-5.51,-20.83,-23.75,0,*53
1511884886.78,49949,10.06,72760.3,-5.51,-20.89,-23.85,0,*57
1511884888.07,49950,10.06,72750.5,-5.49,-20.99,-23.85,0,*57
1511884889.33,49951,10.06,72738.5,-5.49,-20.89,-23.85,0,*57
1511884890.61,49952,10.06,72742.0,-5.49,-21.03,-23.85,0,*57
1511884891.88,49953,10.06,72748.8,-5.49,-20.89,-23.85,0,*55
1511884893.16,49954,10.06,72746.5,-5.45,-20.83,-23.85,0,*54
1511884894.42,49955,10.06,72740.8,-5.49,-20.89,-23.99,0,*5E
1511884895.7,49956,10.06,72742.5,-5.49,-21.03,-23.99,0,*5E
1511884896.96,49957,10.06,72742.5,-5.49,-21.09,-24.21,0,*51
1511884898.22,49958,10.06,72740.8,-5.49,-21.17,-24.21,0,*51
1511884899.47,49959,10.06,72740.8,-5.49,-21.09,-24.11,0,*5C
1511884900.72,49960,10.06,72742.0,-5.49,-21.17,-24.11,0,*59
1511884901.98,49961,10.06,72738.5,-5.49,-21.09,-24.21,0,*54
1511884903.24,49962,10.06,72740.0,-5.49,-21.17,-24.21,0,*58
1511884904.51,49963,10.06,72740.8,-5.51,-21.23,-24.21,0,*57
1511884905.74,49964,10.06,72744.3,-5.51,-21.33,-24.35,0,*54
1511884906.99,49965,10.06,72744.8,-5.49,-21.39,-24.25,0,*57
1511884908.25,49966,10.06,72742.0,-5.49,-21.33,-24.35,0,*5F
1511884909.5,49967,10.06,72748.8,-5.49,-21.33,-24.35,0,*5E
1511884910.75,49968,10.06,72752.0,-5.49,-21.33,-24.35,0,*51
1511884911.99,49969,10.06,72756.5,-5.51,-21.23,-24.35,0,*58
1511884913.21,49970,10.06,72756.5,-5.51,-21.33,-24.35,0,*51
1511884914.45,49971,10.06,72756.8,-5.51,-21.39,-24.41,0,*59
1511884915.68,49972,10.06,72758.5,-5.53,-21.43,-24.47,0,*53
1511884916.91,49973,10.06,72756.0,-5.53,-21.43,-24.47,0,*52
1511884918.14,49974,10.06,72762.0,-5.51,-21.39,-24.41,0,*5C
1511884919.35,49975,10.06,72758.5,-5.51,-21.43,-24.47,0,*56
1511884920.58,49976,10.06,72756.0,-5.53,-21.43,-24.57,0,*56
1511884921.81,49977,10.06,72754.8,-5.53,-21.43,-24.47,0,*56
1511884923.04,49978,10.06,72756.8,-5.53,-21.39,-24.47,0,*54
1511884924.28,49979,10.06,72758.3,-5.53,-21.43,-24.31,0,*59
1511884925.51,49980,10.06,72758.8,-5.51,-21.39,-24.25,0,*55
1511884926.74,49981,10.06,72758.5,-5.51,-21.39,-24.25,0,*54
1511884927.97,49982,10.06,72752.8,-5.53,-21.39,-24.31,0,*50
1511884929.2,49983,10.06,72758.3,-5.51,-21.33,-24.35,0,*5D
1511884930.49,49984,10.06,72762.5,-5.53,-21.27,-24.41,0,*5E
1511884931.72,49985,10.06,72756.8,-5.51,-21.23,-24.35,0,*5A
1511884932.98,49986,10.06,72756.8,-5.53,-21.39,-24.41,0,*53
1511884934.24,49987,10.06,72760.5,-5.53,-21.53,-24.47,0,*58
1511884935.51,49988,10.06,72758.5,-5.53,-21.53,-24.47,0,*57
1511884936.74,49989,10.06,72756.5,-5.53,-21.43,-24.57,0,*56
1511884938.01,49990,10.06,72762.3,-5.53,-21.53,-24.57,0,*5F
1511884939.27,49991,10.06,72760.0,-5.53,-21.53,-24.47,0,*5F
1511884940.51,49992,10.06,72760.5,-5.55,-21.53,-24.61,0,*5E
1511884941.77,49993,10.06,72764.3,-5.57,-21.57,-24.61,0,*59
1511884943.0,49994,10.06,72764.5,-5.55,-21.57,-24.47,0,*58
1511884944.23,49995,10.06,72760.0,-5.55,-21.57,-24.47,0,*59
1511884945.46,49996,10.06,72756.8,-5.55,-21.57,-24.61,0,*5E
1511884946.69,49997,10.06,72760.5,-5.57,-21.73,-24.51,0,*58
1511884947.93,49998,10.06,72760.8,-5.55,-21.67,-24.61,0,*53
1511884949.16,49999,10.06,72758.0,-5.55,-21.67,-24.61,0,*52
1511884950.4,50000,10.06,72756.8,-5.57,-21.73,-24.61,0,*54
1511884951.63,50001,10.06,72756.3,-5.57,-21.63,-24.77,0,*53
1511884952.86,50002,10.06,72758.8,-5.55,-21.67,-24.57,0,*54
1511884954.09,50003,10.06,72754.3,-5.55,-21.57,-24.31,0,*56
1511884955.32,50004,10.06,72760.8,-5.57,-21.63,-24.35,0,*50
1511884956.55,50005,10.06,72764.3,-5.57,-21.47,-24.31,0,*53
1511884957.81,50006,10.06,72760.8,-5.55,-21.23,-23.95,0,*59
1511884959.06,50007,10.06,72758.3,-5.55,-21.23,-24.15,0,*57
1511884960.29,50008,10.06,72752.3,-5.57,-21.43,-24.31,0,*5A
1511884961.57,50009,10.06,72752.8,-5.53,-21.27,-24.15,0,*5B
1511884962.79,50010,10.06,72756.5,-5.55,-21.39,-23.95,0,*55
1511884963.99,50011,10.06,72756.3,-5.55,-21.43,-24.31,0,*50
1511884965.19,50012,10.06,72758.3,-5.55,-21.43,-24.31,0,*53
1511884966.46,50013,10.06,72752.0,-5.53,-21.27,-24.05,0,*51
1511884967.71,50014,10.06,72750.3,-5.57,-21.43,-24.11,0,*55
1511884968.93,50015,10.06,72748.5,-5.55,-21.43,-24.15,0,*52
1511884970.21,50016,10.06,72732.8,-5.53,-21.27,-24.15,0,*55
1511884971.5,50017,10.06,72734.0,-5.53,-21.53,-24.25,0,*54
1511884972.75,50018,10.06,72736.8,-5.53,-21.39,-24.15,0,*54
1511884974.01,50019,10.06,72742.3,-5.53,-21.39,-24.15,0,*55
1511884975.24,50020,10.06,72748.3,-5.53,-21.39,-24.05,0,*5E
1511884976.47,50021,10.06,72748.3,-5.51,-21.43,-24.25,0,*52
1511884977.7,50022,10.06,72750.8,-5.51,-21.39,-23.99,0,*5C
1511884978.96,50023,10.06,72752.8,-5.53,-21.53,-24.05,0,*51
1511884980.25,50024,10.06,72752.0,-5.53,-21.67,-24.25,0,*53
1511884981.54,50025,10.06,72752.0,-5.53,-21.67,-24.25,0,*52
1511884982.77,50026,10.06,72752.0,-5.51,-21.73,-24.15,0,*55
1511884984.03,50027,10.06,72748.5,-5.53,-21.73,-24.15,0,*56
1511884985.32,50028,10.06,72748.3,-5.53,-21.83,-24.25,0,*55
1511884986.55,50029,10.06,72746.8,-5.53,-21.73,-24.31,0,*5E
1511884987.81,50030,10.06,72744.0,-5.53,-21.83,-24.31,0,*59
1511884989.07,50031,10.06,72746.0,-5.55,-21.83,-24.41,0,*59
1511884990.3,50032,10.06,72748.0,-5.55,-21.73,-24.41,0,*55
1511884991.53,50033,10.06,72750.3,-5.55,-21.83,-24.47,0,*5D
1511884992.74,50034,10.06,72746.3,-5.55,-21.73,-24.47,0,*55
1511884993.97,50035,10.06,72750.3,-5.55,-21.83,-24.57,0,*5A
1511884995.2,50036,10.06,72754.5,-5.55,-21.83,-24.57,0,*59
1511884996.45,50037,10.06,72750.8,-5.55,-21.83,-24.41,0,*5F
1511884997.66,50038,10.06,72752.0,-5.55,-21.73,-24.47,0,*59
1511884998.92,50039,10.06,72754.8,-5.57,-21.87,-24.61,0,*55
1511885000.16,50040,10.06,72752.3,-5.55,-21.83,-24.47,0,*59
1511885001.39,50041,10.06,72756.3,-5.57,-21.77,-24.47,0,*51
1511885002.6,50042,10.06,72754.8,-5.55,-21.73,-24.47,0,*54
1511885003.86,50043,10.06,72754.3,-5.57,-21.87,-24.51,0,*5B
1511885005.09,50044,10.06,72750.0,-5.55,-21.83,-24.47,0,*5D
1511885006.35,50045,10.06,72754.5,-5.57,-21.87,-24.61,0,*5E
1511885007.58,50046,10.06,72752.0,-5.57,-22.03,-24.51,0,*51
1511885008.82,50047,10.06,72754.8,-5.57,-21.93,-24.51,0,*5A
1511885010.08,50048,10.06,72752.3,-5.57,-21.87,-24.47,0,*57
1511885011.31,50049,10.06,72752.3,-5.57,-21.93,-24.51,0,*54
1511885012.57,50050,10.06,72754.8,-5.61,-21.97,-24.57,0,*5B
1511885013.81,50051,10.06,72756.5,-5.61,-21.93,-24.57,0,*5E
1511885015.06,50052,10.06,72756.3,-5.61,-22.07,-24.67,0,*50
1511885016.28,50053,10.06,72758.0,-5.61,-22.07,-24.57,0,*52
1511885017.51,50054,10.06,72760.3,-5.63,-22.07,-24.67,0,*54
1511885018.79,50055,10.06,72756.8,-5.61,-21.97,-24.67,0,*5D
1511885020.04,50056,10.06,72752.5,-5.61,-22.11,-24.67,0,*53
1511885021.27,50057,10.06,72752.0,-5.61,-22.07,-24.57,0,*56
1511885022.5,50058,10.06,72752.8,-5.61,-22.07,-24.57,0,*59
1511885023.75,50059,10.06,72762.5,-5.61,-22.07,-24.67,0,*5B
1511885024.95,50060,10.06,72762.0,-5.63,-22.07,-24.57,0,*50
1511885026.2,50061,10.06,72762.5,-5.61,-22.07,-24.67,0,*50
1511885027.45,50062,10.06,72758.3,-5.63,-21.97,-24.41,0,*5F
1511885028.68,50063,10.06,72760.8,-5.63,-21.83,-24.35,0,*58
1511885029.94,50064,10.06,72760.3,-5.61,-21.77,-24.15,0,*54
1511885031.18,50065,10.06,72762.0,-5.61,-21.77,-24.05,0,*54
1511885032.42,50066,10.06,72756.0,-5.61,-21.77,-24.05,0,*57
1511885033.7,50067,10.06,72752.0,-5.61,-21.67,-23.99,0,*55
1511885034.96,50068,10.06,72754.3,-5.61,-21.63,-23.99,0,*5E
1511885036.19,50069,10.06,72758.0,-5.61,-21.77,-24.05,0,*58
1511885037.48,50070,10.06,72752.8,-5.61,-21.67,-24.25,0,*53
1511885038.74,50071,10.06,72748.8,-5.61,-21.83,-24.35,0,*59
1511885040.0,50072,10.06,72752.3,-5.61,-21.83,-24.35,0,*5A
1511885041.26,50073,10.06,72754.8,-5.61,-21.83,-24.35,0,*5B
1511885042.52,50074,10.06,72748.5,-5.61,-21.83,-24.35,0,*5C
1511885043.78,50075,10.06,72748.3,-5.61,-21.93,-24.41,0,*5F
1511885045.04,50076,10.06,72750.3,-5.61,-21.93,-24.41,0,*5C
1511885046.27,50077,10.06,72754.3,-5.61,-22.07,-24.57,0,*54
1511885047.5,50078,10.06,72748.3,-5.61,-22.07,-24.51,0,*5D
1511885048.73,50079,10.06,72754.5,-5.61,-22.07,-24.51,0,*5C
1511885049.98,50080,10.06,72756.8,-5.61,-21.97,-24.51,0,*50
1511885051.27,50081,10.06,72754.8,-5.61,-21.97,-24.41,0,*50
1511885052.52,50082,10.06,72754.3,-5.61,-22.07,-24.41,0,*59
1511885053.77,50083,10.06,72754.0,-5.61,-22.07,-24.41,0,*58
1511885055.0,50084,10.06,72754.0,-5.63,-21.97,-24.51,0,*56
1511885056.23,50085,10.06,72756.5,-5.63,-22.07,-24.41,0,*5C
1511885057.46,50086,10.06,72760.5,-5.63,-21.97,-24.57,0,*52
1511885058.66,50087,10.06,72760.5,-5.63,-22.07,-24.57,0,*59
1511885059.86,50088,10.06,72764.0,-5.63,-22.07,-24.57,0,*56
1511885061.12,50089,10.06,72762.3,-5.61,-21.97,-24.51,0,*59
1511885062.34,50090,10.06,72764.5,-5.63,-22.07,-24.67,0,*5C
1511885063.54,50091,10.06,72758.5,-5.63,-22.07,-24.57,0,*5E
1511885064.8,50092,10.06,72758.5,-5.63,-21.97,-24.67,0,*54
1511885066.03,50093,10.06,72760.0,-5.63,-21.97,-24.57,0,*56
1511885067.29,50094,10.06,72762.3,-5.61,-21.97,-24.57,0,*53
1511885068.48,50095,10.06,72760.8,-5.63,-22.07,-24.57,0,*5A
1511885069.7,50096,10.06,72756.3,-5.63,-21.93,-24.51,0,*51
1511885070.98,50097,10.06,72752.5,-5.61,-21.83,-24.41,0,*52
1511885072.21,50098,10.06,72752.3,-5.63,-21.83,-24.35,0,*5C
1511885073.42,50099,10.06,72744.5,-5.63,-21.93,-24.35,0,*5C
1511885074.68,50100,10.06,72742.8,-5.63,-21.83,-24.41,0,*5F
1511885075.94,50101,10.06,72744.3,-5.61,-21.93,-24.41,0,*5D
1511885077.17,50102,10.06,72746.8,-5.63,-21.97,-24.51,0,*59
1511885078.4,50103,10.06,72738.8,-5.63,-21.97,-24.57,0,*5E
1511885079.63,50104,10.06,72742.5,-5.63,-21.97,-24.57,0,*59
1511885080.84,50105,10.06,72740.0,-5.63,-22.07,-24.57,0,*52
1511885082.07,50106,10.06,72740.8,-5.63,-21.97,-24.51,0,*5D
1511885083.27,50107,10.06,72744.0,-5.63,-22.07,-24.51,0,*56
1511885084.51,50108,10.06,72750.8,-5.63,-21.93,-24.41,0,*56
1511885085.74,50109,10.06,72748.8,-5.63,-21.83,-24.51,0,*57
1511885087.0,50110,10.06,72746.5,-5.63,-21.83,-24.41,0,*5E
1511885088.26,50111,10.06,72752.0,-5.63,-21.83,-24.41,0,*5F
1511885089.49,50112,10.06,72748.8,-5.63,-21.83,-24.51,0,*5D
1511885090.75,50113,10.06,72750.0,-5.61,-21.83,-24.51,0,*5E
1511885092.01,50114,10.06,72754.3,-5.65,-21.87,-24.57,0,*5F
1511885093.3,50115,10.06,72752.5,-5.65,-21.87,-24.71,0,*5A
1511885094.56,50116,10.06,72752.0,-5.65,-21.87,-24.61,0,*58
1511885095.82,50117,10.06,72750.3,-5.63,-21.83,-24.67,0,*5D
1511885097.07,50118,10.06,72744.5,-5.65,-21.97,-24.61,0,*57
1511885098.35,50119,10.06,72748.5,-5.65,-21.97,-24.71,0,*57
1511885099.61,50120,10.06,72746.5,-5.65,-21.87,-24.61,0,*5D
1511885100.87,50121,10.06,72748.5,-5.65,-21.87,-24.61,0,*5C
1511885102.11,50122,10.06,72750.8,-5.67,-21.87,-24.77,0,*5A
1511885103.4,50123,10.06,72748.3,-5.65,-21.87,-24.87,0,*56
1511885104.65,50124,10.06,72750.5,-5.65,-21.87,-24.93,0,*54
1511885105.93,50125,10.06,72754.0,-5.65,-21.97,-24.87,0,*51
1511885107.19,50126,10.06,72754.0,-5.65,-21.97,-24.77,0,*5D
1511885108.45,50127,10.06,72754.5,-5.65,-21.87,-24.93,0,*57
1511885109.71,50128,10.06,72754.8,-5.67,-21.87,-25.03,0,*52
1511885110.97,50129,10.06,72752.8,-5.65,-21.87,-24.93,0,*59
1511885112.22,50130,10.06,72756.5,-5.67,-21.97,-25.03,0,*5A
1511885113.47,50131,10.06,72754.0,-5.67,-21.97,-25.03,0,*5B
1511885114.73,50132,10.06,72752.8,-5.65,-21.87,-24.93,0,*53
1511885115.96,50133,10.06,72752.5,-5.67,-22.03,-25.03,0,*57
1511885117.19,50134,10.06,72756.8,-5.67,-21.97,-25.09,0,*54
1511885118.43,50135,10.06,72752.3,-5.63,-21.83,-24.97,0,*52
1511885119.69,50136,10.06,72756.3,-5.65,-21.97,-25.09,0,*54
1511885120.97,50137,10.06,72752.0,-5.65,-21.87,-25.03,0,*5E
1511885122.23,50138,10.06,72758.5,-5.65,-21.87,-24.93,0,*59
1511885123.49,50139,10.06,72750.5,-5.65,-21.87,-24.93,0,*58
1511885124.75,50140,10.06,72748.3,-5.65,-21.87,-24.93,0,*56
1511885126.0,50141,10.06,72740.5,-5.65,-21.83,-24.93,0,*53
1511885127.23,50142,10.06,72736.3,-5.67,-21.83,-24.93,0,*52
1511885128.51,50143,10.06,72742.0,-5.65,-21.83,-25.03,0,*59
1511885129.77,50144,10.06,72736.5,-5.65,-21.83,-24.93,0,*56
1511885131.05,50145,10.06,72742.0,-5.65,-21.83,-25.03,0,*5F
1511885132.33,50146,10.06,72744.3,-5.65,-21.83,-25.03,0,*5C
1511885133.6,50147,10.06,72744.0,-5.65,-21.83,-25.09,0,*57
1511885134.83,50148,10.06,72744.8,-5.63,-21.77,-25.03,0,*5F
1511885136.09,50149,10.06,72750.3,-5.63,-21.83,-25.03,0,*55
1511885137.35,50150,10.06,72746.8,-5.63,-21.83,-25.03,0,*5D
1511885138.61,50151,10.06,72746.0,-5.63,-21.83,-25.03,0,*5C
1511885139.83,50152,10.06,72744.5,-5.63,-21.93,-25.19,0,*55
1511885141.06,50153,10.06,72742.3,-5.63,-21.97,-25.19,0,*50
1511885142.29,50154,10.06,72740.3,-5.63,-21.97,-25.19,0,*57
1511885143.5,50155,10.06,72736.5,-5.63,-21.93,-25.19,0,*52
1511885144.73,50156,10.06,72742.5,-5.63,-21.97,-25.19,0,*55
1511885145.95,50157,10.06,72744.3,-5.63,-21.93,-25.19,0,*50
1511885147.18,50158,10.06,72746.8,-5.63,-21.97,-25.23,0,*52
1511885148.44,50159,10.0,72744.0,-5.65,-22.11,-25.29,0,*52
1511885149.65,50160,10.06,72746.8,-5.63,-22.11,-25.39,0,*5F
1511885150.86,50161,10.06,72750.5,-5.63,-22.11,-25.35,0,*52
1511885152.06,50162,10.06,72750.0,-5.63,-22.07,-25.23,0,*51
1511885153.31,50163,10.06,72752.5,-5.65,-22.11,-25.45,0,*51
1511885154.52,50164,10.0,72750.8,-5.63,-22.07,-25.39,0,*5C
1511885155.75,50165,10.06,72750.8,-5.63,-21.97,-25.39,0,*57
1511885157.02,50166,10.06,72742.0,-5.65,-22.17,-25.39,0,*59
1511885158.22,50167,10.06,72742.5,-5.63,-22.07,-25.35,0,*53
1511885159.45,50168,10.06,72740.8,-5.63,-21.97,-25.35,0,*56
1511885160.69,50169,10.06,72742.3,-5.63,-21.97,-25.39,0,*5B
1511885161.91,50170,10.06,72750.5,-5.63,-22.11,-25.49,0,*59
1511885163.15,50171,10.06,72746.0,-5.63,-22.17,-25.49,0,*5E
1511885164.44,50172,10.06,72742.3,-5.65,-22.21,-25.55,0,*53
1511885165.68,50173,10.06,72738.8,-5.63,-21.97,-25.13,0,*58
1511885166.94,50174,10.06,72740.8,-5.65,-21.87,-25.09,0,*53
1511885168.23,50175,10.06,72742.0,-5.65,-21.87,-25.29,0,*50
1511885169.46,50176,10.06,72740.0,-5.65,-22.11,-25.61,0,*53
1511885170.74,50177,10.06,72740.3,-5.63,-22.17,-25.71,0,*53
1511885172.0,50178,10.06,72740.3,-5.65,-22.37,-25.75,0,*5C
1511885173.23,50179,10.06,72742.8,-5.65,-22.37,-25.87,0,*50
1511885174.44,50180,10.06,72744.3,-5.67,-22.37,-25.91,0,*53
1511885175.67,50181,10.06,72744.8,-5.65,-22.53,-25.91,0,*52
1511885176.9,50182,10.06,72744.0,-5.67,-22.47,-25.91,0,*56
1511885178.16,50183,10.06,72746.5,-5.65,-22.47,-25.87,0,*52
1511885179.4,50184,10.06,72748.3,-5.67,-22.47,-25.91,0,*50
1511885180.61,50185,10.06,72746.8,-5.67,-22.53,-25.87,0,*53
1511885181.86,50186,10.06,72748.8,-5.65,-22.47,-25.87,0,*57
1511885183.1,50187,10.06,72750.3,-5.65,-22.53,-25.91,0,*54
1511885184.33,50188,10.06,72752.3,-5.67,-22.47,-25.91,0,*5C
1511885185.54,50189,10.06,72746.0,-5.67,-22.53,-25.91,0,*58
1511885186.8,50190,10.06,72744.5,-5.65,-22.47,-25.87,0,*50
1511885188.04,50191,10.06,72746.0,-5.67,-22.37,-25.75,0,*59
1511885189.27,50192,10.06,72750.3,-5.67,-22.47,-25.87,0,*50
1511885190.53,50193,10.06,72752.5,-5.65,-22.47,-25.91,0,*54
1511885191.74,50194,10.06,72752.3,-5.67,-22.53,-25.91,0,*54
1511885192.94,50195,10.06,72750.0,-5.67,-22.63,-25.91,0,*56
1511885194.15,50196,10.06,72754.3,-5.67,-22.63,-26.03,0,*5D
1511885195.36,50197,10.06,72754.8,-5.67,-22.67,-26.03,0,*58
1511885196.62,50198,10.06,72752.8,-5.69,-22.77,-26.07,0,*5C
1511885197.88,50199,10.06,72752.0,-5.69,-22.77,-26.07,0,*5D
1511885199.15,50200,10.06,72754.0,-5.69,-22.77,-26.07,0,*5E
1511885200.35,50201,10.06,72754.5,-5.67,-22.83,-26.07,0,*5A
1511885201.59,50202,10.0,72754.5,-5.69,-22.83,-26.03,0,*53
1511885202.83,50203,10.06,72758.3,-5.69,-22.67,-26.03,0,*58
1511885204.05,50204,10.0,72746.8,-5.69,-22.63,-25.91,0,*53
1511885205.26,50205,10.06,72744.0,-5.71,-22.67,-25.91,0,*5F
1511885206.49,50206,10.06,72742.8,-5.69,-22.67,-25.91,0,*55
1511885207.72,50207,10.06,72740.8,-5.69,-22.67,-25.91,0,*54
1511885208.95,50208,10.06,72746.8,-5.69,-22.63,-25.91,0,*5F
1511885210.18,50209,10.06,72742.0,-5.69,-22.67,-25.87,0,*5D
1511885211.38,50210,10.06,72742.8,-5.67,-22.67,-25.91,0,*5C
1511885212.58,50211,10.06,72736.8,-5.67,-22.67,-25.91,0,*5D
1511885213.78,50212,10.0,72742.3,-5.67,-22.67,-25.87,0,*59
1511885215.04,50213,10.06,72754.5,-5.65,-22.63,-25.75,0,*53
1511885216.25,50214,10.0,72736.0,-5.67,-22.67,-25.91,0,*58
1511885217.45,50215,10.0,72738.8,-5.67,-22.83,-25.91,0,*53
1511885218.65,50216,10.06,72742.5,-5.67,-22.83,-25.91,0,*50
1511885219.86,50217,10.06,72744.5,-5.67,-22.83,-25.87,0,*56
1511885221.09,50218,10.06,72746.3,-5.69,-22.83,-26.03,0,*58
1511885222.3,50219,10.06,72750.3,-5.67,-22.83,-25.91,0,*5F
1511885223.51,50220,10.06,72750.5,-5.67,-22.83,-26.03,0,*5D
1511885224.72,50221,10.06,72750.5,-5.67,-22.83,-26.03,0,*5C
1511885225.93,50222,10.06,72750.0,-5.67,-22.93,-26.07,0,*5A
1511885227.14,50223,10.06,72748.3,-5.67,-22.93,-26.07,0,*5B
1511885228.35,50224,10.06,72746.8,-5.67,-22.93,-26.07,0,*5C
1511885229.56,50225,10.06,72752.0,-5.67,-22.97,-26.07,0,*59
1511885230.77,50226,10.06,72750.5,-5.67,-23.09,-26.07,0,*5C
1511885231.98,50227,10.06,72752.3,-5.67,-23.09,-26.07,0,*5D
1511885233.22,50228,10.06,72750.0,-5.69,-23.13,-26.07,0,*57
1511885234.45,50229,10.06,72750.5,-5.69,-23.13,-26.07,0,*56
1511885235.69,50230,10.06,72748.8,-5.69,-23.09,-26.07,0,*55
1511885236.92,50231,10.06,72746.5,-5.69,-23.13,-26.07,0,*5F
1511885238.2,50232,10.06,72740.8,-5.69,-23.23,-26.17,0,*5E
1511885239.44,50233,10.06,72742.5,-5.71,-23.33,-26.23,0,*50
1511885240.69,50234,10.06,72748.3,-5.69,-23.23,-26.23,0,*5F
1511885241.97,50235,10.06,72748.5,-5.69,-23.23,-26.17,0,*59
1511885243.26,50236,10.06,72752.0,-5.69,-23.29,-26.17,0,*50
1511885244.49,50237,10.06,72752.3,-5.71,-23.33,-26.23,0,*54
1511885245.72,50238,10.06,72752.5,-5.71,-23.33,-26.23,0,*5B
1511885246.99,50239,10.06,72750.0,-5.71,-23.33,-26.13,0,*59
1511885248.25,50240,10.06,72754.0,-5.71,-23.29,-26.13,0,*5C
1511885249.52,50241,10.06,72748.5,-5.71,-23.29,-26.13,0,*5D
1511885250.77,50242,10.06,72750.5,-5.69,-23.29,-26.07,0,*52
1511885252.04,50243,10.06,72750.3,-5.71,-23.33,-26.13,0,*54
1511885253.27,50244,10.06,72752.3,-5.71,-23.33,-26.23,0,*50
1511885254.51,50245,10.06,72750.8,-5.71,-23.33,-26.23,0,*51
1511885255.74,50246,10.06,72752.5,-5.69,-23.43,-26.07,0,*5A
1511885257.01,50247,10.06,72752.0,-5.71,-23.49,-26.29,0,*54
1511885258.25,50248,10.06,72748.5,-5.71,-23.49,-26.23,0,*51
1511885259.48,50249,10.06,72748.3,-5.71,-23.49,-26.23,0,*50
1511885260.75,50250,10.06,72744.5,-5.71,-23.53,-26.29,0,*59
1511885262.01,50251,10.06,72750.8,-5.73,-23.59,-26.29,0,*50
1511885263.3,50252,10.06,72740.0,-5.73,-23.53,-26.29,0,*59
1511885264.56,50253,10.06,72736.5,-5.73,-23.59,-26.29,0,*52
1511885265.82,50254,10.06,72736.3,-5.73,-23.59,-26.29,0,*55
1511885267.08,50255,10.0,72734.8,-5.73,-23.59,-26.29,0,*54
1511885268.35,50256,10.06,72738.8,-5.73,-23.59,-26.29,0,*57
1511885269.61,50257,10.0,72742.8,-5.73,-23.59,-26.17,0,*5B
1511885270.89,50258,10.06,72746.0,-5.73,-23.53,-26.13,0,*5A
1511885272.18,50259,10.06,72746.0,-5.73,-23.53,-26.17,0,*5F
1511885273.42,50260,10.06,72748.0,-5.75,-23.43,-26.17,0,*52
1511885274.65,50261,10.06,72754.5,-5.75,-23.59,-26.29,0,*55
1511885275.89,50262,10.06,72752.5,-5.71,-23.53,-26.23,0,*52
1511885277.15,50263,10.06,72758.3,-5.75,-23.69,-26.33,0,*5F
1511885278.41,50264,10.06,72764.0,-5.73,-23.59,-26.29,0,*56
1511885279.65,50265,10.06,72758.3,-5.75,-23.59,-26.29,0,*51
1511885280.89,50266,10.06,72748.5,-5.75,-23.59,-26.17,0,*5F
1511885282.16,50267,10.06,72758.3,-5.73,-23.69,-26.17,0,*5B
1511885283.45,50268,10.06,72762.3,-5.73,-23.53,-26.13,0,*59
1511885284.71,50269,10.06,72762.3,-5.73,-23.43,-26.13,0,*59
1511885285.98,50270,10.0,72754.8,-5.73,-23.43,-25.97,0,*5E
1511885287.27,50271,10.06,72754.5,-5.73,-23.53,-25.97,0,*5E
1511885288.53,50272,10.0,72746.8,-5.73,-23.53,-26.03,0,*53
1511885289.79,50273,10.06,72752.0,-5.73,-23.59,-26.13,0,*59
1511885291.03,50274,10.06,72750.0,-5.71,-23.53,-26.07,0,*53
1511885292.29,50275,10.06,72754.3,-5.75,-23.69,-26.13,0,*5A
1511885293.53,50276,10.06,72754.5,-5.71,-23.65,-26.07,0,*54
1511885294.8,50277,10.06,72746.3,-5.73,-23.69,-26.17,0,*5A
1511885296.07,50278,10.06,72744.5,-5.73,-23.75,-26.17,0,*58
1511885297.33,50279,10.0,72742.5,-5.73,-23.75,-26.17,0,*59
1511885298.62,50280,10.0,72744.3,-5.73,-23.85,-26.29,0,*5D